Pottstown, PA

6:55 AM EDT on October 23, 2017 (GMT -0400)
Pottstown Limerick

Weather History for KPTW - November, 2013

Change the Weather History Date:

Sunday, November 17, 2013

  Actual Average (KRDG) Record (KRDG)
Temperature  
Mean Temperature 56 °F -  
Max Temperature 64 °F 50 °F 73 °F (1928)
Min Temperature 48 °F 32 °F 17 °F (1933)
Degree Days  
Heating Degree Days 9    
Growing Degree Days 6 (Base 50)    
Moisture  
Dew Point 52 °F    
Average Humidity 88    
Maximum Humidity 100    
Minimum Humidity 67    
Precipitation  
Precipitation 0.00 in - - ()
Sea Level Pressure  
Sea Level Pressure 30.09 in    
Wind  
Wind Speed 2 mph (SSE)    
Max Wind Speed 12 mph    
Max Gust Speed 18 mph    
Visibility 6 miles    
Events Rain    
Averages and records for this station are not official NWS values.
T = Trace of Precipitation, MM = Missing Value Source: NWS Daily Summary

Daily Weather History Graph

Daily Weather History Graph

Search for Another Location

Airport or City:

Trip Planner

Search our weather history database for the weather conditions in past years. The results will help you decide how hot, cold, wet, or windy it might be!

Date:

Astronomy

Nov. 17, 2013 Rise Set
Actual Time 6:50 AM EST 4:43 PM EST
Civil Twilight 6:21 AM EST 5:12 PM EST
Nautical Twilight 5:48 AM EST 5:45 PM EST
Astronomical Twilight 5:15 AM EST 6:18 PM EST
Moon 4:58 PM EST (11/17) 6:42 AM EST (11/17)
Length of Visible Light 10h 51m
Length of Day
9h 53m
Full, 100% of the Moon is Illuminated
Nov 17
Full
Nov 25
Last Quarter
Dec 2
New
Dec 9
First Quarter
Dec 17
Full

Hourly Weather History & Observations

Time (EST) Temp. Dew Point Humidity Pressure Visibility Wind Dir Wind Speed Gust Speed Precip Events Conditions
12:42 AM 50.0 °F 46.9 °F 89% 30.27 in 5.0 mi Calm Calm - N/A   Overcast
12:54 AM 50.0 °F 46.9 °F 89% 30.26 in 6.0 mi Calm Calm - N/A   Overcast
1:54 AM 50.0 °F 48.0 °F 93% 30.25 in 5.0 mi Calm Calm - N/A   Overcast
2:54 AM 50.0 °F 48.0 °F 93% 30.24 in 3.0 mi East 3.5 mph - N/A   Overcast
3:16 AM 50.0 °F 46.9 °F 89% 30.23 in 5.0 mi Calm Calm - N/A   Overcast
3:51 AM 50.0 °F 48.2 °F 94% 30.23 in 5.0 mi Calm Calm - N/A   Overcast
3:54 AM 50.0 °F 48.0 °F 93% 30.22 in 4.0 mi Calm Calm - N/A   Overcast
4:20 AM 50.0 °F 48.0 °F 93% 30.23 in 2.0 mi Calm Calm - N/A   Overcast
4:35 AM 48.9 °F 48.9 °F 100% 30.22 in 1.8 mi Calm Calm - N/A   Overcast
4:54 AM 48.9 °F 48.0 °F 97% 30.21 in 1.8 mi Variable 4.6 mph - N/A   Overcast
5:02 AM 48.9 °F 48.9 °F 100% 30.21 in 2.0 mi Calm Calm - N/A   Overcast
5:36 AM 48.9 °F 48.0 °F 97% 30.20 in 2.0 mi East 3.5 mph - N/A   Overcast
5:46 AM 48.9 °F 48.0 °F 97% 30.20 in 2.0 mi ENE 3.5 mph - N/A   Overcast
5:54 AM 48.9 °F 48.0 °F 97% 30.19 in 2.0 mi Calm Calm - N/A   Overcast
6:54 AM 50.0 °F 48.9 °F 96% 30.19 in 2.5 mi Calm Calm - N/A   Overcast
7:11 AM 50.0 °F 48.9 °F 96% 30.20 in 1.8 mi Calm Calm - N/A   Overcast
7:31 AM 50.0 °F 48.9 °F 96% 30.20 in 2.0 mi Calm Calm - N/A   Overcast
7:54 AM 51.1 °F 50.0 °F 96% 30.19 in 2.0 mi Calm Calm - N/A   Overcast
8:26 AM 51.1 °F 48.9 °F 92% 30.19 in 3.0 mi Calm Calm - N/A   Overcast
8:39 AM 51.1 °F 50.0 °F 96% 30.20 in 2.5 mi Calm Calm - N/A   Overcast
8:54 AM 52.0 °F 50.0 °F 93% 30.19 in 2.5 mi Calm Calm - N/A   Overcast
9:03 AM 53.1 °F 51.1 °F 93% 30.20 in 3.0 mi Calm Calm - N/A   Overcast
9:54 AM 54.0 °F 51.1 °F 90% 30.19 in 5.0 mi SSE 4.6 mph - N/A   Overcast
10:54 AM 57.9 °F 53.1 °F 84% 30.16 in 8.0 mi South 4.6 mph - N/A   Scattered Clouds
11:51 AM 62.6 °F 53.6 °F 72% 30.12 in 10.0 mi SSW 5.8 mph - N/A   Mostly Cloudy
11:54 AM 63.0 °F 53.1 °F 70% 30.11 in 10.0 mi Variable 4.6 mph - N/A   Mostly Cloudy
12:54 PM 62.1 °F 54.0 °F 75% 30.09 in 10.0 mi South 3.5 mph - N/A   Overcast
1:54 PM 63.0 °F 54.0 °F 72% 30.05 in 10.0 mi SW 3.5 mph - N/A   Overcast
2:34 PM 64.0 °F 54.0 °F 70% 30.05 in 10.0 mi SSE 4.6 mph - N/A   Overcast
2:54 PM 63.0 °F 53.1 °F 70% 30.03 in 10.0 mi SSE 3.5 mph - N/A   Overcast
3:54 PM 64.0 °F 53.1 °F 67% 30.01 in 10.0 mi Variable 5.8 mph - N/A   Mostly Cloudy
4:54 PM 62.1 °F 53.1 °F 72% 29.98 in 10.0 mi Variable 3.5 mph - N/A   Clear
5:54 PM 61.0 °F 54.0 °F 78% 29.98 in 10.0 mi Variable 4.6 mph - N/A   Clear
6:54 PM 61.0 °F 55.0 °F 81% 29.94 in 10.0 mi SSE 5.8 mph - N/A   Partly Cloudy
7:45 PM 60.1 °F 55.9 °F 86% 29.93 in 10.0 mi SSE 4.6 mph - N/A   Mostly Cloudy
7:54 PM 60.1 °F 55.9 °F 86% 29.92 in 10.0 mi South 3.5 mph - N/A   Overcast
8:54 PM 60.1 °F 55.9 °F 86% 29.88 in 10.0 mi SSE 4.6 mph - N/A   Overcast
9:15 PM 60.1 °F 55.9 °F 86% 29.89 in 10.0 mi Variable 4.6 mph - N/A   Overcast
9:54 PM 60.1 °F 57.0 °F 90% 29.84 in 10.0 mi South 5.8 mph - N/A   Overcast
10:49 PM 60.8 °F 57.2 °F 88% 29.81 in 10.0 mi South 3.5 mph - 0.00 in   Overcast
10:54 PM 61.0 °F 57.0 °F 87% 29.80 in 10.0 mi South 3.5 mph - 0.00 in   Overcast
11:08 PM 61.0 °F 57.0 °F 87% 29.79 in 10.0 mi Variable 4.6 mph - N/A   Overcast
11:54 PM 61.0 °F 57.9 °F 90% 29.76 in 10.0 mi South 11.5 mph 18.4 mph 0.00 in Rain Light Rain